Location: Breux
(46.3269°N, 3.2993°E)
Time: 08:28:07
(UTC+00:00)

STARLINK-1204 - Pass Details

Date: 09 April 2020
Orbit: 548 x 551 km, 53.0° (Epoch: 05 June)

Event Time Altitude Azimuth Distance (km) Brightness Sun altitude
Rises 20:06:15 0° 297° (WNW) 2,726 9.0 -16.7°
Reaches altitude 10° 20:08:35 10° 289° (WNW) 1,828 7.5 -17.0°
Maximum altitude 20:12:27 38° 221° (SW) 846 4.6 -17.6°
Enters shadow 20:14:05 26° 174° (S) 1,089 4.8 -17.8°
